Springfield, OH

5:48 AM EST on January 18, 2018 (GMT -0500)
Springfield-Beckley Municipal

Weather History for KSGH - June, 2013

Change the Weather History Date:

Wednesday, June 26, 2013

  Actual Average (KFFO) Record (KFFO)
Temperature  
Mean Temperature 76 °F -  
Max Temperature 84 °F 81 °F 95 °F (2005)
Min Temperature 68 °F 60 °F 50 °F (2012)
Cooling Degree Days 11    
Growing Degree Days 26 (Base 50)    
Moisture  
Dew Point 69 °F    
Average Humidity 87    
Maximum Humidity 100    
Minimum Humidity 65    
Precipitation  
Precipitation 0.38 in - - ()
Sea Level Pressure  
Sea Level Pressure 29.88 in    
Wind  
Wind Speed 7 mph (SSW)    
Max Wind Speed 23 mph    
Max Gust Speed 30 mph    
Visibility 5 miles    
Events Fog , Rain , Thunderstorm    
Averages and records for this station are not official NWS values.
T = Trace of Precipitation, MM = Missing Value Source: NWS Daily Summary

Daily Weather History Graph

Daily Weather History Graph

Search for Another Location

Airport or City:

Trip Planner

Search our weather history database for the weather conditions in past years. The results will help you decide how hot, cold, wet, or windy it might be!

Date:

Astronomy

Jun. 26, 2013 Rise Set
Actual Time 6:08 AM EDT 9:07 PM EDT
Civil Twilight 5:36 AM EDT 9:40 PM EDT
Nautical Twilight 4:54 AM EDT 10:21 PM EDT
Astronomical Twilight 4:06 AM EDT 11:10 PM EDT
Moon 11:30 PM EDT (6/26) 9:58 AM EDT (6/26)
Length of Visible Light 16h 04m
Length of Day
14h 59m
Waning Gibbous, 85% of the Moon is Illuminated
Jun 26
Waning Gibbous
Jun 30
Last Quarter
Jul 8
New
Jul 15
First Quarter
Jul 22
Full

Hourly Weather History & Observations

Time (EDT) Temp. Heat Index Dew Point Humidity Pressure Visibility Wind Dir Wind Speed Gust Speed Precip Events Conditions
12:41 AM 78.8 °F - 71.6 °F 78% 29.94 in 6.0 mi SSW 6.9 mph - N/A Thunderstorm Haze
12:56 AM 77.9 °F - 70.9 °F 79% 29.91 in 6.0 mi SSW 8.1 mph - N/A   Haze
1:56 AM 77.9 °F - 72.0 °F 82% 29.89 in 6.0 mi SW 9.2 mph - N/A Thunderstorm Haze
2:35 AM 75.2 °F - 69.8 °F 83% 29.95 in 4.0 mi NW 10.4 mph - 0.01 in Rain , Thunderstorm Light Thunderstorms and Rain
2:56 AM 72.0 °F - 68.9 °F 90% 29.91 in 7.0 mi North 6.9 mph - 0.01 in   Mostly Cloudy
3:11 AM 71.6 °F - 68.0 °F 88% 29.95 in 7.0 mi Variable 4.6 mph - 0.00 in Rain Light Rain
3:43 AM 69.8 °F - 68.0 °F 94% 29.97 in 2.5 mi Variable 5.8 mph - 0.09 in Rain Heavy Rain
3:56 AM 68.9 °F - 68.0 °F 97% 29.92 in 5.0 mi NNE 4.6 mph - 0.10 in Rain Light Rain
4:56 AM 68.0 °F - 66.9 °F 96% 29.92 in 7.0 mi Calm Calm - 0.00 in   Clear
5:43 AM 69.8 °F - 68.0 °F 94% 29.97 in 7.0 mi SSW 3.5 mph - 0.00 in Rain Light Rain
5:56 AM 68.9 °F - 68.0 °F 97% 29.95 in 6.0 mi SSW 4.6 mph - 0.00 in Rain Light Rain
6:08 AM 69.8 °F - 68.0 °F 94% 29.97 in 5.0 mi South 4.6 mph - 0.00 in Rain Light Rain
6:56 AM 68.9 °F - 66.9 °F 93% 29.91 in 5.0 mi SSW 4.6 mph - 0.00 in   Scattered Clouds
7:56 AM 70.9 °F - 68.0 °F 91% 29.91 in 6.0 mi WSW 10.4 mph - 0.00 in   Clear
8:56 AM 72.0 °F - 68.9 °F 90% 29.92 in 6.0 mi SW 5.8 mph - N/A   Partly Cloudy
9:56 AM 73.9 °F - 68.9 °F 84% 29.92 in 6.0 mi SW 8.1 mph - N/A   Haze
10:56 AM 77.9 °F - 68.9 °F 74% 29.91 in 4.0 mi SW 10.4 mph - N/A   Haze
11:56 AM 77.9 °F - 68.9 °F 74% 29.93 in 7.0 mi SSW 8.1 mph - N/A   Overcast
12:56 PM 81.9 °F 85.6 °F 70.0 °F 67% 29.91 in 7.0 mi WSW 11.5 mph - N/A   Clear
1:56 PM 82.9 °F 87.5 °F 70.9 °F 67% 29.89 in 6.0 mi South 5.8 mph - N/A   Haze
2:56 PM 84.9 °F 90.7 °F 72.0 °F 65% 29.87 in 6.0 mi SSW 8.1 mph - N/A   Haze
3:56 PM 83.8 °F 89.2 °F 72.0 °F 67% 29.85 in 6.0 mi South 10.4 mph - N/A   Haze
4:22 PM 82.4 °F 87.2 °F 71.6 °F 70% 29.86 in 6.0 mi South 8.1 mph - N/A Thunderstorm Haze
4:43 PM 75.2 °F - 69.8 °F 83% 29.91 in 1.2 mi WNW 23.0 mph 29.9 mph 0.04 in Rain , Thunderstorm Heavy Thunderstorms and Rain
4:45 PM 73.4 °F - 69.8 °F 88% 29.91 in 0.5 mi WNW 19.6 mph 29.9 mph 0.09 in Fog , Rain , Thunderstorm Heavy Thunderstorms and Rain
4:56 PM 68.9 °F - 64.9 °F 87% 29.87 in 0.8 mi WNW 9.2 mph 23.0 mph 0.17 in Rain , Thunderstorm Heavy Thunderstorms and Rain
4:58 PM 69.8 °F - 64.4 °F 83% 29.88 in 1.0 mi WNW 6.9 mph - 0.01 in Rain , Thunderstorm Heavy Thunderstorms and Rain
5:05 PM 69.8 °F - 66.2 °F 88% 29.87 in 1.5 mi Calm Calm - 0.03 in Rain , Thunderstorm Thunderstorms and Rain
5:15 PM 69.8 °F - 66.2 °F 88% 29.85 in 3.0 mi ENE 6.9 mph - 0.03 in Rain , Thunderstorm Light Thunderstorms and Rain
5:43 PM 73.4 °F - 68.0 °F 83% 29.85 in 6.0 mi ESE 6.9 mph - 0.04 in   Haze
5:56 PM 73.9 °F - 68.0 °F 82% 29.82 in 6.0 mi SE 5.8 mph - 0.04 in   Haze
6:34 PM 73.4 °F - 69.8 °F 88% 29.83 in 1.5 mi South 4.6 mph - 0.05 in Rain Heavy Rain
6:41 PM 73.4 °F - 68.0 °F 83% 29.83 in 1.0 mi South 3.5 mph - 0.05 in Rain , Thunderstorm Light Thunderstorms and Rain
6:43 PM 73.4 °F - 68.0 °F 83% 29.84 in 1.5 mi SSW 3.5 mph - 0.05 in Rain , Thunderstorm Light Thunderstorms and Rain
6:45 PM 73.4 °F - 69.8 °F 88% 29.84 in 4.0 mi South 3.5 mph - 0.05 in Rain , Thunderstorm Light Thunderstorms and Rain
6:56 PM 72.0 °F - 68.9 °F 90% 29.84 in 4.0 mi South 11.5 mph 18.4 mph 0.05 in Rain , Thunderstorm Light Thunderstorms and Rain
7:20 PM 71.6 °F - 69.8 °F 94% 29.84 in 3.0 mi South 4.6 mph - 0.01 in Rain Light Rain
7:56 PM 70.9 °F - 68.9 °F 93% 29.82 in 5.0 mi SSW 5.8 mph - 0.01 in   Clear
8:56 PM 70.0 °F - 68.9 °F 96% 29.81 in 6.0 mi South 3.5 mph - N/A   Scattered Clouds
9:56 PM 70.0 °F - 68.9 °F 96% 29.79 in 6.0 mi South 3.5 mph - N/A   Partly Cloudy
10:18 PM 69.8 °F - 69.8 °F 100% 29.82 in 6.0 mi South 4.6 mph - 0.00 in   Mostly Cloudy
10:26 PM 69.8 °F - 69.8 °F 100% 29.82 in 6.0 mi South 4.6 mph - 0.00 in   Overcast
10:56 PM 70.0 °F - 68.9 °F 96% 29.81 in 5.0 mi South 4.6 mph - 0.00 in Rain Light Rain
11:28 PM 69.8 °F - 69.8 °F 100% 29.83 in 5.0 mi South 4.6 mph - 0.00 in   Overcast
11:56 PM 70.0 °F - 68.9 °F 96% 29.81 in 4.0 mi South 5.8 mph - 0.00 in   Mostly Cloudy